ATLAS 5 CENTAUR DEB, 44666

Orbit data source: Space-Track

ATLAS 5 CENTAUR DEB, 44666 is space debris in HEO originally from a launch on Wed, 17 Oct 2018 UTC launched from the Air Force Eastern Test Range (AFETR). Debris objects in space refer to the collection of defunct objects orbiting the Earth. Examples of debris include non-operational satellites, rocket bodies, and fragments generated from explosions, collisions, or faulty payload assembly.

Loading next visibility...
Identifier
44666, 2018-079AC
Orbit
HEO
Country
Flag of USUS
Related business
Flag of USUnited Launch Alliance/Lockheed Martin (US)
Manufacturer
ULA Decatur
Mission
Spacecraft
Bus & Motor
Unknown
Mass
Unknown
Launch date (UTC)
2018-10-17 (7 years ago)
Launch vehicle
Unknown
Launch site
Air Force Eastern Test Range (AFETR)
Object type
Payload
Rocket body
Debris
Shape & HBR
Unknown
Radar Cross Section
RCS unknown

Expand to show TLE details & history
Last TLE update: 2 days ago

TLE from 2 days ago
0 ATLAS 5 CENTAUR DEB
1 44666U 18079AC  25259.53939666 -.00000195  00000-0  00000-0 0  9997
2 44666  12.7475  55.1091 4442068 286.4710  30.3187  1.90655320 43809
Epoch: 2025-09-16T12:56Z
TLE epoch observation values (Epoch: 2025-09-16T12:56:43.871Z)
Latitude
-0.00006°
Longitude
-134.73774°
Altitude
13,186.915 km
Speed
5.122 km/s
True Right ascension
03h 40m 41s
True Declination
0° 00' 00"
Sunlit
Object was in daylight at epoch
Visualization orbit readout
Latitude
Unknown
Longitude
Unknown
Altitude
Unknown
Speed
Unknown
Apparent Right ascension
Unknown
Apparent Declination
Unknown
Sunlit
N/A
Visualization observer readout
Local Sidereal Time
00:47:24
Azimuth
Unknown
Elevation
Unknown
Doppler factor
Unknown
Orbital elements
Apogee altitude
33,301.243 km
Perigee altitude
8,892.203 km
Semi-major axis
27,474.86 km
Eccentricity
0.44421
Inclination
12.7475°
RAAN
55.1091°
Arg. of periapsis
286.471°
True anomaly
73.53797°
Mean anomaly
30.3187°
Eccentric anomaly
49.74139°
Mean motion
0.47658 °/min
Orbital period
755.37 mins
BSTAR
0
Loading maneuver chart data...
Computing Atmospheric mass density...

Documentation

Showing up to 5 results
|